Regional Weather Roundup
Issued by NWS State College, PA

Home | Current Version | Previous Version | Graphics & Text | Print | Product List | Glossary On
Versions: 1 2 3 4 5 6 7 8 9 10 11 12 13 14 15 16 17 18 19 20 21 22 23 24 25 26 27 28 29 30 31 32 33 34 35 36 37 38 39 40 41 42 43 44 45 46 47 48 49 50
000
ASUS41 KCTP 011810
RWRCTP

REGIONAL WEATHER ROUNDUP
NATIONAL WEATHER SERVICE STATE COLLEGE PA
200 PM EDT TUE SEP 01 2015

Note: "fair" indicates few or no clouds below 12,000 feet with no
significant weather and/or obstructions to visibility.

* = STATION THAT DOES NOT REPORT PRECIPITATION /E.G. RAIN...SNOW...ETC/
    THUNDER OR FOG.

PAZ002>004-007>009-013>016-020>023-029>032-011900-
WESTERN PENNSYLVANIA

CITY           SKY/WX    TMP DP  RH WIND       PRES   REMARKS
ERIE           SUNNY     82  68  62 NW9       30.10S
MEADVILLE      SUNNY     83  64  52 W7        30.13F
FRANKLIN*      PTSUNNY   82  66  57 W6        30.15F
NEW CASTLE     FAIR      87  68  53 CALM      30.12F
BEAVER COUNTY  MOSUNNY   88  66  48 SW7       30.13F
BUTLER*        MOSUNNY   86  66  51 W5        30.14F
PITTSBURGH INT MOSUNNY   87  64  46 W7        30.12F
PITTSBURGH     MOSUNNY   86  60  41 W6        30.11F
INDIANA*       MOSUNNY   84  66  54 NW6       30.16S
LATROBE        MOSUNNY   86  64  48 W7        30.13F
WASHINGTON CO* SUNNY     88  64  45 W3        30.13F
$$

PAZ004>006-010>012-017>019-024>028-033>037-041-042-045-046-049>053-011900-
CENTRAL PENNSYLVANIA

CITY           SKY/WX    TMP DP  RH WIND       PRES   REMARKS
BRADFORD       MOSUNNY   80  60  50 CALM      30.15F
DUBOIS         MOSUNNY   84  64  50 NW6       30.14S
CLEARFIELD     MOSUNNY   83  61  47 NW7       30.13F
JOHNSTOWN      PTSUNNY   82  62  50 NW9       30.17F
ALTOONA        MOSUNNY   86  63  45 N6G18     30.13F
STATE COLLEGE  MOSUNNY   82  66  57 W6        30.12S
WILLIAMSPORT   MOSUNNY   84  67  56 SW6       30.06F
SELINSGROVE    MOSUNNY   85  68  56 VRB3      30.08F
FT INDIANTOWN  MOSUNNY   85  65  49 VRB2      30.07S
CAPITAL CITY   SUNNY     87  62  43 NW9       30.06S
HARRISBURG     MOSUNNY   88  63  43 W8        30.05S
YORK             N/A    N/A N/A N/A MISG      30.06F
$$

PAZ038>040-043-044-047-048-054-055-060>062-067>071-011900-
EASTERN PENNSYLVANIA

CITY           SKY/WX    TMP DP  RH WIND       PRES   REMARKS
SCRANTON       MOSUNNY   85  63  47 N6        30.08F
MOUNT POCONO   MOSUNNY   79  61  53 VRB6      30.13S
ALLENTOWN      MOSUNNY   88  65  46 VRB5      30.06F
QUAKERTOWN*    PTCLDY    86  64  48 NE5       30.07F
READING        MOSUNNY   86  61  42 CALM      30.05S
LANCASTER      MOSUNNY   88  62  41 N6        30.06S
COATESVILLE    CLEAR     86  64  48 SW6       30.07F
POTTSTOWN      SUNNY     87  66  49 N9        30.06F
BLUE BELL      MOSUNNY   88  66  48 CALM      30.04F
DOYLESTOWN     MOSUNNY   86  63  45 VRB5      30.05F
WILLOW GROVE   NOT AVBL
NORTH PHILA    SUNNY     90  61  37 NW8       30.05F
PHILADELPHIA   MOSUNNY   91  63  39 S7        30.03F
$$



USA.gov is the U.S. government's official web portal to all federal, state and local government web resources and services.